Regional Weather Roundup
Issued by NWS Portland, ME

Current Version | Previous Version | Text Only | Print | Product List | Glossary Off
Versions: 1 2 3 4 5 6 7 8 9 10 11 12 13 14 15 16 17 18 19 20 21 22 23 24 25 26 27 28 29 30 31 32 33 34 35 36 37 38 39 40 41 42 43 44 45 46 47 48 49 50
000 ASUS41 KGYX 150810 RWRGYX WEATHER ROUNDUP FOR MAINE AND NEW HAMPSHIRE NATIONAL WEATHER SERVICE GRAY ME 300 AM EST THU NOV 15 2018 MEZ002-005-006-010-012-015-018-020-021-024-026-027-029-150900- MAINE CITY SKY/WX TMP DP RH WIND PRES REMARKS PORTLAND FAIR 18 8 65 CALM 30.59R SANFORD FAIR 12 8 84 CALM 30.58F BAR HARBOR FAIR 16 5 62 NW10G16 30.54R WCI 4 WISCASSET FAIR 16 6 65 CALM 30.59R ROCKLAND FAIR 17 6 62 W15G23 30.53S WCI 2 FRYEBURG FAIR 7 4 87 CALM 30.55F LEWISTONAUBURN FAIR 15 6 67 CALM 30.56S AUGUSTA FAIR 14 4 64 CALM 30.56R WATERVILLE FAIR 15 5 64 MISG 30.53R BANGOR FAIR 15 3 59 W9 30.55R GREENVILLE N/A 8 0 69 NW15 30.43R WCI -9 MILLINOCKET FAIR 12 2 64 W16G29 30.50R WCI -5 HOULTON FAIR 11 3 70 NW7 30.42R PRESQUE ISLE FAIR 11 4 73 W13 30.42R WCI -4 FRENCHVILLE FAIR 13 2 61 NW21 30.35R WCI -5 CARIBOU FAIR 12 3 67 W9G18 30.39R $$ NHZ002-005-008-009-011-012-014-150900- NEW HAMPSHIRE CITY SKY/WX TMP DP RH WIND PRES REMARKS PORTSMOUTH MOCLDY 19 5 56 W8 30.58F ROCHESTER FAIR 17 7 64 CALM 30.56F NASHUA FAIR 19 8 62 W3 30.61F MANCHESTER FAIR 20 6 55 NW5 30.59F CONCORD FAIR 17 7 64 NW7 30.59F LACONIA FAIR 15 7 70 SW6 30.56F PLYMOUTH FAIR 15 6 66 W6 30.58S BERLIN FAIR -2 -4 91 CALM 30.54S WHITEFIELD FAIR 2 -3 80 CALM 30.55F JAFFREY FAIR 17 6 62 CALM 30.54F KEENE FAIR 18 9 68 CALM 30.61R LEBANON FAIR 15 9 76 CALM 30.60R MT WASHINGTON MOCLDY 3 -22 30 NW40 N/A WCI -24 $$ VTZ005-007-008-150900- VERMONT CITY SKY/WX TMP DP RH WIND PRES REMARKS ST JOHNSBURY N/A 6 3 87 MISG 30.59R MONTPELIER FAIR 7 6 96 CALM 30.59R BURLINGTON FAIR 15 8 73 E3 30.63R $$ MAZ007-012-024-CTZ003-RIZ002-NYZ038-NYZ072-150900- SOUTHERN NEW ENGLAND AND NY CITY SKY/WX TMP DP RH WIND PRES REMARKS BOSTON MOCLDY 24 5 44 NW12 30.61F WCI 13 WORCESTER FAIR 19 5 54 N8 30.53F NANTUCKET FAIR 30 16 56 N15G22 30.55F WCI 19 PROVIDENCE FAIR 25 7 46 N7 30.59F HARTFORD MOCLDY 23 8 52 N5 30.60F ALBANY MOCLDY 21 11 65 N5 30.61S NEW YORK CITY CLOUDY 31 13 47 NE10 30.60R $$ ANZ081-ANZ082-ANZ150-NHZ014-MEZ023>029-150900- COASTAL MARINE OBSERVATIONS STATION/POSITION TIME TEMP WIND PRES WAVE AIR SEA DIR/SP/G HT/PER (UTC) (F) (DEG/KT/KT) (MB) (FT/S) MOUNT DESERT ROC 0800 25 300/ 28/ 33 1032.9R MATINICUS ROCK 0700 23 320/ 25/ 29 1033.0R ISLE OF SHOALS 0700 22 320/ 15/ 16 1035.7R CASHES LEDGE BUO 0750 28 49 1034.4R 6/ 6 $$ .............KEY.............. WCI - WIND CHILL TC - TEMPERATURE IN CELSIUS VSB - VISIBILITY IN MILES HX - HEAT INDEX FAIR- INDICATES FEW OR NO CLOUDS BELOW 12,000 FT, WITH NO SIGNIFICANT WEATHER AND/OR OBSTRUCTIONS TO VISIBILITY.

USA.gov is the U.S. government's official web portal to all federal, state and local government web resources and services.